• In Czech Republic
  • List of Countries
  • For 7 days
  • Water Temperature
  • Satellite Maps
  • Weather Map
  • Weather Widgets
  • user-avatar
    Login

    Hourly Weather A'ali

    Today, 20 May, Sunday

    Time Temperature Precipitation Wind Pressure Humidity
    00:00 +32°C° 0 mm 1 mps 755 mmHg 27%
    01:00 +32°C° 0 mm 1 mps 755 mmHg 26%
    02:00 +32°C° 0 mm 1 mps 755 mmHg 25%
    03:00 +31°C° 0 mm 2 mps 755 mmHg 28%
    04:00 +33°C° 0 mm 3 mps 755 mmHg 29%
    05:00 +33°C° 0 mm 3 mps 755 mmHg 29%
    06:00 +33°C° 0 mm 3 mps 756 mmHg 29%
    07:00 +34°C° 0 mm 3 mps 756 mmHg 27%
    08:00 +35°C° 0 mm 2 mps 756 mmHg 25%
    09:00 +36°C° 0 mm 2 mps 756 mmHg 24%
    10:00 +37°C° 0 mm 2 mps 756 mmHg 22%
    11:00 +38°C° 0 mm 2 mps 756 mmHg 19%
    12:00 +39°C° 0 mm 2 mps 755 mmHg 17%
    13:00 +39°C° 0 mm 3 mps 755 mmHg 17%
    14:00 +39°C° 0 mm 3 mps 755 mmHg 16%
    15:00 +40°C° 0 mm 4 mps 754 mmHg 16%
    16:00 +38°C° 0 mm 4 mps 754 mmHg 19%
    17:00 +37°C° 0 mm 5 mps 754 mmHg 22%
    18:00 +36°C° 0 mm 5 mps 754 mmHg 25%
    19:00 +35°C° 0 mm 4 mps 755 mmHg 27%
    20:00 +35°C° 0 mm 4 mps 755 mmHg 28%
    21:00 +34°C° 0 mm 4 mps 755 mmHg 30%
    22:00 +34°C° 0 mm 3 mps 755 mmHg 30%
    23:00 +33°C° 0 mm 3 mps 755 mmHg 31%

    Tomorrow, 21 May, Monday

    Time Temperature Precipitation Wind Pressure Humidity
    00:00 +32°C° 0 mm 2 mps 755 mmHg 31%
    01:00 +31°C° 0 mm 2 mps 755 mmHg 32%
    02:00 +31°C° 0 mm 1 mps 755 mmHg 32%
    03:00 +30°C° 0 mm 1 mps 755 mmHg 33%
    04:00 +30°C° 0 mm 1 mps 755 mmHg 32%
    05:00 +31°C° 0 mm 1 mps 755 mmHg 31%
    06:00 +31°C° 0 mm 1 mps 755 mmHg 31%
    07:00 +32°C° 0 mm 1 mps 756 mmHg 28%
    08:00 +33°C° 0 mm 1 mps 756 mmHg 26%
    09:00 +34°C° 0 mm 1 mps 756 mmHg 24%
    10:00 +35°C° 0 mm 1 mps 756 mmHg 22%
    11:00 +36°C° 0 mm 1 mps 756 mmHg 20%
    12:00 +38°C° 0 mm 2 mps 756 mmHg 18%
    13:00 +38°C° 0 mm 2 mps 756 mmHg 17%
    14:00 +39°C° 0 mm 3 mps 755 mmHg 16%
    15:00 +40°C° 0 mm 4 mps 755 mmHg 15%
    16:00 +38°C° 0 mm 4 mps 755 mmHg 17%
    17:00 +37°C° 0 mm 4 mps 755 mmHg 19%
    18:00 +36°C° 0 mm 4 mps 755 mmHg 21%
    19:00 +35°C° 0 mm 4 mps 755 mmHg 23%
    20:00 +35°C° 0 mm 3 mps 755 mmHg 24%
    21:00 +34°C° 0 mm 3 mps 755 mmHg 26%
    22:00 +34°C° 0 mm 3 mps 755 mmHg 27%
    23:00 +33°C° 0 mm 3 mps 755 mmHg 28%

    Day after tomorrow, 22 May, Tuesday

    Time Temperature Precipitation Wind Pressure Humidity
    00:00 +32°C° 0 mm 2 mps 755 mmHg 29%
    01:00 +31°C° 0 mm 2 mps 755 mmHg 30%
    02:00 +31°C° 0 mm 2 mps 754 mmHg 31%
    03:00 +30°C° 0 mm 1 mps 754 mmHg 32%
    04:00 +31°C° 0 mm 1 mps 754 mmHg 31%
    05:00 +31°C° 0 mm 1 mps 755 mmHg 31%
    06:00 +29°C° 0 mm 0 mps 755 mmHg 30%
    07:00 +30°C° 0 mm 0 mps 755 mmHg 28%
    08:00 +33°C° 0 mm 1 mps 756 mmHg 25%
    09:00 +35°C° 0 mm 1 mps 756 mmHg 23%
    10:00 +36°C° 0 mm 1 mps 756 mmHg 21%
    11:00 +37°C° 0 mm 1 mps 756 mmHg 20%
    12:00 +39°C° 0 mm 1 mps 756 mmHg 18%
    13:00 +39°C° 0 mm 2 mps 756 mmHg 17%
    14:00 +39°C° 0 mm 3 mps 755 mmHg 16%
    15:00 +40°C° 0 mm 3 mps 755 mmHg 15%
    16:00 +39°C° 0 mm 3 mps 755 mmHg 17%
    17:00 +38°C° 0 mm 3 mps 754 mmHg 19%
    18:00 +37°C° 0 mm 3 mps 754 mmHg 20%
    19:00 +36°C° 0 mm 3 mps 755 mmHg 22%
    20:00 +36°C° 0 mm 3 mps 755 mmHg 23%
    21:00 +35°C° 0 mm 2 mps 755 mmHg 24%
    22:00 +34°C° 0 mm 2 mps 755 mmHg 25%
    23:00 +34°C° 0 mm 2 mps 754 mmHg 25%

    23 May, Wednesday

    Time Temperature Precipitation Wind Pressure Humidity
    00:00 +32°C° 0 mm 2 mps 754 mmHg 25%
    01:00 +32°C° 0 mm 2 mps 754 mmHg 26%
    02:00 +32°C° 0 mm 2 mps 753 mmHg 26%
    03:00 +31°C° 0 mm 2 mps 753 mmHg 27%
    04:00 +31°C° 0 mm 2 mps 753 mmHg 27%
    05:00 +32°C° 0 mm 2 mps 754 mmHg 27%
    06:00 +32°C° 0 mm 1 mps 754 mmHg 27%
    07:00 +34°C° 0 mm 2 mps 754 mmHg 25%
    08:00 +35°C° 0 mm 2 mps 755 mmHg 23%
    09:00 +36°C° 0 mm 3 mps 755 mmHg 21%
    10:00 +37°C° 0 mm 3 mps 755 mmHg 19%
    11:00 +38°C° 0 mm 2 mps 755 mmHg 17%
    12:00 +39°C° 0 mm 2 mps 754 mmHg 16%
    13:00 +40°C° 0 mm 2 mps 754 mmHg 15%
    14:00 +40°C° 0 mm 2 mps 753 mmHg 14%
    15:00 +41°C° 0 mm 2 mps 753 mmHg 13%
    16:00 +40°C° 0 mm 3 mps 753 mmHg 14%
    17:00 +39°C° 0 mm 3 mps 753 mmHg 16%
    18:00 +38°C° 0 mm 4 mps 753 mmHg 17%
    19:00 +37°C° 0 mm 4 mps 753 mmHg 21%
    20:00 +36°C° 0 mm 4 mps 753 mmHg 25%
    21:00 +35°C° 0 mm 3 mps 753 mmHg 30%
    22:00 +35°C° 0 mm 4 mps 753 mmHg 30%
    23:00 +34°C° 0 mm 4 mps 752 mmHg 31%

    24 May, Thursday

    Time Temperature Precipitation Wind Pressure Humidity
    00:00 +34°C° 0 mm 4 mps 752 mmHg 32%
    01:00 +34°C° 0 mm 3 mps 751 mmHg 33%
    02:00 +32°C° 0 mm 2 mps 751 mmHg 33%
    03:00 +32°C° 0 mm 1 mps 751 mmHg 34%
    04:00 +32°C° 0 mm 2 mps 751 mmHg 33%
    05:00 +32°C° 0 mm 2 mps 752 mmHg 32%
    06:00 +33°C° 0 mm 3 mps 752 mmHg 32%
    07:00 +35°C° 0 mm 2 mps 752 mmHg 29%
    08:00 +36°C° 0 mm 2 mps 753 mmHg 26%
    09:00 +37°C° 0 mm 2 mps 753 mmHg 24%
    10:00 +38°C° 0 mm 2 mps 752 mmHg 22%
    11:00 +39°C° 0 mm 2 mps 752 mmHg 20%
    12:00 +40°C° 0 mm 2 mps 752 mmHg 18%
    13:00 +41°C° 0 mm 2 mps 751 mmHg 16%
    14:00 +42°C° 0 mm 3 mps 750 mmHg 15%
    15:00 +43°C° 0 mm 3 mps 750 mmHg 14%
    16:00 +42°C° 0 mm 3 mps 750 mmHg 14%
    17:00 +42°C° 0 mm 3 mps 750 mmHg 14%
    18:00 +40°C° 0 mm 3 mps 750 mmHg 15%
    19:00 +40°C° 0 mm 4 mps 750 mmHg 18%
    20:00 +39°C° 0 mm 5 mps 750 mmHg 21%
    21:00 +37°C° 0 mm 5 mps 751 mmHg 25%
    22:00 +37°C° 0 mm 5 mps 750 mmHg 27%
    23:00 +36°C° 0 mm 5 mps 750 mmHg 29%

    25 May, Friday

    Time Temperature Precipitation Wind Pressure Humidity
    00:00 +36°C° 0 mm 4 mps 750 mmHg 31%
    01:00 +35°C° 0 mm 4 mps 750 mmHg 30%
    02:00 +35°C° 0 mm 4 mps 750 mmHg 29%
    03:00 +35°C° 0 mm 3 mps 750 mmHg 29%
    04:00 +35°C° 0 mm 3 mps 750 mmHg 28%
    05:00 +35°C° 0 mm 3 mps 750 mmHg 26%
    06:00 +35°C° 0 mm 3 mps 751 mmHg 25%
    07:00 +37°C° 0 mm 4 mps 751 mmHg 23%
    08:00 +38°C° 0 mm 4 mps 751 mmHg 20%
    09:00 +40°C° 0 mm 5 mps 751 mmHg 17%
    10:00 +42°C° 0 mm 4 mps 751 mmHg 16%
    11:00 +43°C° 0 mm 3 mps 750 mmHg 15%
    12:00 +44°C° 0 mm 3 mps 750 mmHg 14%
    13:00 +44°C° 0 mm 4 mps 750 mmHg 14%
    14:00 +45°C° 0 mm 5 mps 749 mmHg 14%
    15:00 +45°C° 0 mm 5 mps 749 mmHg 14%
    16:00 +44°C° 0 mm 6 mps 749 mmHg 17%
    17:00 +43°C° 0 mm 7 mps 749 mmHg 19%
    18:00 +41°C° 0 mm 7 mps 749 mmHg 22%
    19:00 +40°C° 0 mm 6 mps 749 mmHg 24%
    20:00 +39°C° 0 mm 5 mps 750 mmHg 26%
    21:00 +37°C° 0 mm 4 mps 750 mmHg 28%
    22:00 +37°C° 0 mm 4 mps 750 mmHg 28%
    23:00 +36°C° 0 mm 3 mps 749 mmHg 27%
    Show more